Location: S�tio Afonso Gruber
(26.1760°S, 49.5250°W)
Time: 08:39:14
(UTC+00:00)

Intelsat 5-3 Rocket - Visible Passes

Search period start: 09 May 2021 00:00
Search period end: 19 May 2021 00:00
Orbit: 282 x 6067 km, 23.5° (Epoch: 08 May)

Date Brightness Start Highest point End Pass type
(mag) Time Alt. Az. Time Alt. Az. Time Alt. Az.
09 May 7.6 02:37:26 10° W 02:57:26 33° W 02:57:26 33° W visible
09 May 7.0 22:40:08 10° W 23:18:44 82° N 23:35:56 48° ENE visible
10 May 7.2 01:40:14 10° W 02:10:45 49° WNW 02:10:45 49° WNW visible
10 May 7.3 21:47:45 10° W 22:21:54 84° N 22:49:17 31° ENE visible
11 May 7.0 00:44:17 10° W 01:24:06 64° NW 01:24:06 64° NW visible
11 May 8.0 03:53:55 10° W 03:58:56 14° W 03:58:56 14° W visible
11 May 7.4 20:56:16 10° W 21:25:12 85° N 22:02:40 16° E visible
11 May 6.9 23:49:39 10° W 00:30:15 71° NNW 00:37:30 64° NNE visible
12 May 7.7 02:54:30 10° W 03:12:20 28° WNW 03:12:20 28° WNW visible
12 May 7.4 20:05:31 10° W 20:29:16 83° N 21:11:57 10° E visible
12 May 7.1 22:56:12 10° W 23:34:12 77° NNW 23:50:57 48° NE visible
13 May 7.4 01:56:39 10° W 02:25:48 42° WNW 02:25:48 42° WNW visible
13 May 7.3 22:03:48 10° W 22:37:31 81° NNW 23:04:29 32° ENE visible
14 May 7.2 01:00:23 10° W 01:39:20 55° NW 01:39:20 55° NW visible
14 May 7.4 21:12:16 10° W 21:40:53 83° N 22:18:06 17° ENE visible
15 May 7.1 00:05:35 10° W 00:44:56 63° NNW 00:52:57 56° N visible
15 May 7.9 03:12:40 10° W 03:27:50 22° WNW 03:27:50 22° WNW visible
15 May 7.3 20:21:27 10° W 20:44:57 84° N 21:27:39 10° E visible
15 May 7.2 23:12:05 10° W 23:49:06 69° NNW 00:06:41 45° NE visible
16 May 7.6 02:13:38 10° W 02:41:33 35° NW 02:41:33 35° NW visible
16 May 7.4 22:19:38 10° W 22:52:39 75° NNW 23:20:31 29° ENE visible
17 May 7.3 01:16:42 10° W 01:53:48 45° NW 01:55:25 45° NNW visible
17 May 7.4 21:28:04 10° W 21:56:13 79° NNW 22:34:30 15° ENE visible
18 May 7.3 00:21:33 10° W 00:59:08 53° NNW 01:09:24 46° N visible
18 May 8.0 03:33:00 10° W 03:44:19 17° WNW 03:44:19 17° WNW visible
18 May 7.3 20:37:12 10° W 21:00:23 82° N 21:42:56 10° ENE visible
